Flag for Canada Weather past 2 weeks in Sherbrooke, Quebec, Canada

Now
41 °F

Overcast.


Feels Like: 41 °F
Forecast: 40 / 65 °F
Wind: 2 mph from East

Location: Sherbrooke


UV Index: 3 (Moderate)

Visibility: 9 mi


Pressure: 30.10 "Hg

Humidity: 57%

Dew point: 27 °F

Location of SherbrookeLocation

Historic Weather in Sherbrooke

°F

Sherbrooke temperature yesterday

Maximum temperature yesterday: 55 °F (at 3:00 PM)
Minimum temperature yesterday: 21 °F (at 6:00 AM)
Average temperature yesterday: 39 °F

Past Weeks' High & Low Weather Summary

 TemperatureHumidityPressure
High75 °F (Apr 14, 3:00 PM)100% (Apr 7, 5:00 AM)30.82 "Hg (Apr 7, 5:00 AM)
Low12 °F (Apr 17, 3:00 AM)15% (Apr 20, 5:00 PM)29.22 "Hg (Apr 8, 4:00 PM)
Average40 °F67%30.03 "Hg
* Reported Apr 6 3:00 AM — Apr 21 3:00 AM, Sherbrooke, Weather by CustomWeather, © 2014

Note: Actual official high and low records may vary slightly from our data, if they occured in-between our weather recording intervals... More about our weather records

Advertising

Historic Weather Conditions — Data for Previous 24 hours

 ConditionsComfort  
Time TempWeatherWind HumidityBarometerVisibility
3:00 AM
Apr 21
39 °FOvercast.2 mph65%30.12 "Hg9 mi
2:00 AM39 °FPassing clouds.2 mph61%30.15 "Hg9 mi
1:00 AM39 °FMostly cloudy.2 mph65%30.17 "Hg9 mi
12:00 AM41 °FPassing clouds.3 mph57%30.19 "Hg9 mi
11:00 PM
Apr 20
41 °FOvercast.2 mph57%30.22 "Hg9 mi
10:00 PM43 °FOvercast.5 mph57%30.24 "Hg9 mi
9:00 PM43 °FPassing clouds.5 mph42%30.27 "Hg9 mi
8:00 PM46 °FOvercast.3 mph34%30.28 "Hg9 mi
7:00 PM54 °FOvercast.No wind18%30.29 "Hg9 mi
6:00 PM55 °FPassing clouds.6 mph15%30.31 "Hg9 mi
5:00 PM55 °FSunny.9 mph15%30.34 "Hg9 mi
4:00 PM55 °FPassing clouds.9 mph19%30.35 "Hg9 mi
3:00 PM55 °FPartly sunny.6 mph19%30.37 "Hg9 mi
2:00 PM52 °FOvercast.5 mph28%30.40 "Hg9 mi
1:00 PM50 °FPartly sunny.2 mph24%30.42 "Hg9 mi
12:00 PM48 °FPassing clouds.5 mph25%30.44 "Hg9 mi
11:00 AM45 °FSunny.7 mph29%30.47 "Hg9 mi
10:00 AM41 °FPartly sunny.5 mph33%30.50 "Hg9 mi
9:00 AM36 °FPartly sunny.2 mph52%30.52 "Hg9 mi
8:00 AM30 °FSunny.3 mph75%30.53 "Hg9 mi
7:00 AM25 °FSunny.3 mph86%30.53 "Hg9 mi
6:00 AM21 °FClear.2 mph93%30.53 "Hg9 mi
5:00 AM23 °FClear.No wind93%30.50 "Hg9 mi
4:00 AM23 °FClear.5 mph93%30.49 "Hg9 mi
Weather by CustomWeather, © 2014

See weather overview